Flag for USA

Past Weather in Columbus Historic District, Georgia, USA — Yesterday and Last 2 Weeks

Now
69 °F

Sunny.


Feels Like: 69 °F
Forecast: 71 / 42 °F
Wind: 3 mph from North

Location: Columbus Metropolitan Airport

Current Time: Apr 2, 2020 at 3:30:59 pm

Latest Report: Apr 2, 2020 at 2:51 pm


Visibility: 10 mi

Pressure: 30.03 "Hg

Humidity: 32%

Dew Point: 38 °F

Location of Columbus Historic DistrictLocation

Past Weather in Columbus Historic District — Graph

°F

Columbus Historic District Temperature Yesterday

Maximum temperature yesterday: 67 °F (at 3:51 pm)
Minimum temperature yesterday: 44 °F (at 6:51 am)
Average temperature yesterday: 56 °F

High & Low Weather Summary for the Past Weeks

 TemperatureHumidityPressure
High86 °F (Mar 28, 4:51 pm)97% (Mar 20, 7:51 am)30.32 "Hg (Mar 20, 7:51 am)
Low44 °F (Apr 1, 6:51 am)23% (Mar 30, 4:51 pm)29.61 "Hg (Mar 31, 3:51 pm)
Average69 °F69%30.05 "Hg
* Reported Mar 18 1:55 pm — Apr 2 1:51 pm, Columbus Historic District. Weather by CustomWeather, © 2020

Note: Actual official high and low records may vary slightly from our data, if they occured in-between our weather recording intervals... More about our weather records

Columbus Historic District Weather History for the Previous 24 Hours

Scroll right to see more
 ConditionsComfort  
Time TempWeatherWind HumidityBarometerVisibility
1:51 pm
Thu, Apr 2
66 °FSunny.3 mph39%30.06 "Hg10 mi
12:51 pm63 °FSunny.3 mph41%30.08 "Hg10 mi
11:51 am60 °FSunny.8 mph42%30.11 "Hg10 mi
10:51 am58 °FSunny.9 mph44%30.11 "Hg10 mi
9:51 am53 °FSunny.7 mph55%30.11 "Hg10 mi
8:51 am50 °FSunny.6 mph61%30.09 "Hg10 mi
7:51 am45 °FSunny.6 mph74%30.09 "Hg10 mi
6:51 am45 °FClear.6 mph74%30.07 "Hg10 mi
5:51 am46 °FClear.6 mph71%30.05 "Hg10 mi
4:51 am47 °FClear.5 mph69%30.04 "Hg10 mi
3:51 am48 °FClear.5 mph66%30.04 "Hg10 mi
2:51 am49 °FClear.5 mph66%30.03 "Hg10 mi
1:51 am51 °FClear.5 mph61%30.05 "Hg10 mi
12:51 am53 °FClear.7 mph59%30.03 "Hg10 mi
11:51 pm
Wed, Apr 1
54 °FClear.3 mph59%30.03 "Hg10 mi
10:51 pm56 °FClear.5 mph55%30.01 "Hg10 mi
9:51 pm58 °FClear.3 mph50%29.99 "Hg10 mi
8:51 pm61 °FClear.3 mph44%29.96 "Hg10 mi
7:51 pm64 °FSunny.5 mph38%29.94 "Hg10 mi
6:51 pm67 °FSunny.9 mph33%29.92 "Hg10 mi
5:51 pm67 °FSunny.14 mph32%29.90 "Hg10 mi
4:51 pm67 °FSunny.15 mph31%29.90 "Hg10 mi
3:51 pm67 °FSunny.13 mph35%29.91 "Hg10 mi
Weather by CustomWeather, © 2020

See weather overview

Advertising